| time (UTC) | temp F | wind direction | speed MPH | gust MPH | rain 1hr in | rain 24hr in | rain mn in | humidity % | barometer mb |
| 20260903165621 | 80 | 0.0 | 1.0 | 0.00 | 0.00 | 0.00 | 11 | 1010.2 | |
| 20260903164610 | 80 | 0.0 | 3.0 | 0.00 | 0.00 | 0.00 | 11 | 1010.3 | |
| 20260903163559 | 80 | 2.0 | 3.0 | 0.00 | 0.00 | 0.00 | 11 | 1010.4 | |
| 20260903162547 | 80 | 1.0 | 3.0 | 0.00 | 0.00 | 0.00 | 11 | 1010.4 | |
| 20260903161536 | 82 | 1.0 | 3.0 | 0.00 | 0.00 | 0.00 | 11 | 1010.5 | |
| 20260903160524 | 80 | 0.0 | 2.0 | 0.00 | 0.00 | 0.00 | 11 | 1010.4 | |
| 20260903155510 | 82 | 0.0 | 4.0 | 0.00 | 0.00 | 0.00 | 11 | 1010.4 | |
| 20260903154458 | 82 | 0.0 | 5.0 | 0.00 | 0.00 | 0.00 | 11 | 1010.5 | |
| 20260903153446 | 82 | 4.0 | 6.0 | 0.00 | 0.00 | 0.00 | 11 | 1010.6 | |
| 20260903152436 | 82 | 5.0 | 7.0 | 0.00 | 0.00 | 0.00 | 11 | 1010.5 | |
| 20260903151424 | 86 | 5.0 | 6.0 | 0.00 | 0.00 | 0.00 | 11 | 1010.7 | |
| 20260903150413 | 87 | 0.0 | 4.0 | 0.00 | 0.00 | 0.00 | 11 | 1010.7 | |
| 20260903145402 | 87 | 2.0 | 4.0 | 0.00 | 0.00 | 0.00 | 11 | 1010.8 | |
| 20260903144350 | 86 | 3.0 | 4.0 | 0.00 | 0.00 | 0.00 | 11 | 1010.7 | |
| 20260903143339 | 86 | 4.0 | 6.0 | 0.00 | 0.00 | 0.00 | 11 | 1010.7 | |
| 20260903142328 | 86 | 3.0 | 7.0 | 0.00 | 0.00 | 0.00 | 11 | 1010.8 | |
| 20260903141316 | 86 | 3.0 | 5.0 | 0.00 | 0.00 | 0.00 | 11 | 1011.0 | |
| 20260903140304 | 86 | 4.0 | 5.0 | 0.00 | 0.00 | 0.00 | 11 | 1011.1 | |
| 20260903135253 | 84 | 4.0 | 6.0 | 0.00 | 0.00 | 0.00 | 11 | 1010.9 | |
| 20260903134242 | 86 | 4.0 | 8.0 | 0.00 | 0.00 | 0.00 | 11 | 1011.0 | |
| 20260903133231 | 84 | 5.0 | 7.0 | 0.00 | 0.00 | 0.00 | 11 | 1011.0 | |
| 20260903132220 | 86 | 3.0 | 7.0 | 0.00 | 0.00 | 0.00 | 11 | 1010.9 | |
| 20260903131208 | 86 | 2.0 | 5.0 | 0.00 | 0.00 | 0.00 | 11 | 1010.9 | |
| 20260903130157 | 86 | 4.0 | 8.0 | 0.00 | 0.00 | 0.00 | 11 | 1011.0 | |
| 20260903125145 | 86 | 3.0 | 6.0 | 0.00 | 0.00 | 0.00 | 11 | 1011.0 | |
| 20260903124134 | 91 | 1.0 | 4.0 | 0.00 | 0.00 | 0.00 | 10 | 1011.0 | |
| 20260903123123 | 91 | 1.0 | 7.0 | 0.00 | 0.00 | 0.00 | 97 | 1011.0 | |
| 20260903122111 | 91 | 2.0 | 4.0 | 0.00 | 0.00 | 0.00 | 10 | 1011.1 | |
| 20260903121101 | 91 | 0.0 | 8.0 | 0.00 | 0.00 | 0.00 | 11 | 1011.1 | |
| 20260903120049 | 89 | 1.0 | 4.0 | 0.00 | 0.00 | 0.00 | 11 | 1011.1 | |
| 20260903115037 | 87 | 2.0 | 4.0 | 0.00 | 0.00 | 0.00 | 11 | 1011.2 | |
| 20260903114026 | 86 | 4.0 | 8.0 | 0.00 | 0.00 | 0.00 | 11 | 1011.3 | |
| 20260903113015 | 89 | 2.0 | 6.0 | 0.00 | 0.00 | 0.00 | 11 | 1011.3 | |
| 20260903112003 | 87 | 5.0 | 8.0 | 0.00 | 0.00 | 0.00 | 11 | 1011.4 | |
| 20260903110952 | 89 | 3.0 | 10.0 | 0.00 | 0.00 | 0.00 | 11 | 1011.3 | |
| 20260903105940 | 89 | 3.0 | 9.0 | 0.00 | 0.00 | 0.00 | 11 | 1011.5 | |
| 20260903104929 | 89 | 4.0 | 8.0 | 0.00 | 0.00 | 0.00 | 11 | 1011.4 | |
| 20260903103917 | 87 | 5.0 | 9.0 | 0.00 | 0.00 | 0.00 | 11 | 1011.5 | |
| 20260903102905 | 87 | 5.0 | 11.0 | 0.00 | 0.00 | 0.00 | 11 | 1011.4 | |
| 20260903101854 | 87 | 5.0 | 12.0 | 0.00 | 0.00 | 0.00 | 11 | 1011.4 | |
| 20260903100842 | 87 | 3.0 | 11.0 | 0.00 | 0.00 | 0.00 | 11 | 1011.5 | |
| 20260903095830 | 86 | 7.0 | 11.0 | 0.00 | 0.00 | 0.00 | 11 | 1011.6 | |
| 20260903094818 | 86 | 8.0 | 12.0 | 0.00 | 0.00 | 0.00 | 11 | 1011.6 | |
| 20260903093807 | 86 | 6.0 | 11.0 | 0.00 | 0.00 | 0.00 | 11 | 1011.6 | |
| 20260903092755 | 86 | 5.0 | 14.0 | 0.00 | 0.00 | 0.00 | 11 | 1011.7 | |
| 20260903091744 | 86 | 6.0 | 12.0 | 0.00 | 0.00 | 0.00 | 11 | 1011.5 | |
| 20260903090733 | 86 | 7.0 | 14.0 | 0.00 | 0.00 | 0.00 | 11 | 1011.4 | |
| 20260903085722 | 86 | 7.0 | 16.0 | 0.00 | 0.00 | 0.00 | 11 | 1011.4 | |
| 20260903084710 | 86 | 7.0 | 13.0 | 0.00 | 0.00 | 0.00 | 11 | 1011.3 | |
| 20260903083659 | 86 | 7.0 | 13.0 | 0.00 | 0.00 | 0.00 | 11 | 1011.3 | |
| 20260903082648 | 87 | 6.0 | 11.0 | 0.00 | 0.00 | 0.00 | 11 | 1011.1 | |
| 20260903081633 | 87 | 4.0 | 9.0 | 0.00 | 0.00 | 0.00 | 11 | 1011.1 | |
| 20260903080621 | 86 | 4.0 | 8.0 | 0.00 | 0.00 | 0.00 | 11 | 1011.0 | |
| 20260903075610 | 86 | 0.0 | 1.0 | 0.00 | 0.00 | 0.00 | 11 | 1010.9 | |
| 20260903074558 | 86 | 1.0 | 3.0 | 0.00 | 0.00 | 0.00 | 11 | 1010.8 | |
| 20260903073547 | 86 | 0.0 | 1.0 | 0.00 | 0.00 | 0.00 | 11 | 1010.6 | |
| 20260903072536 | 84 | 0.0 | 0.0 | 0.00 | 0.00 | 0.00 | 11 | 1010.7 | |
| 20260903071424 | 84 | 0.0 | 0.0 | 0.00 | 0.00 | 0.00 | 11 | 1010.8 | |
| 20260903070108 | 82 | 0.0 | 2.0 | 0.00 | 0.00 | 0.00 | 11 | 1010.8 | |
| 20260903065056 | 82 | 0.0 | 0.0 | 0.00 | 0.00 | 0.00 | 11 | 1010.7 | |
| 20260903063637 | 82 | 0.0 | 0.0 | 0.00 | 0.00 | 0.00 | 11 | 1010.7 | |
| 20260903062626 | 78 | 0.0 | 1.0 | 0.00 | 0.00 | 0.00 | 11 | 1010.6 | |
| 20260903061614 | 75 | 0.0 | 1.0 | 0.00 | 0.00 | 0.00 | 11 | 1010.6 | |
| 20260903060604 | 73 | 0.0 | 0.0 | 0.00 | 0.00 | 0.00 | 11 | 1010.7 | |
| 20260903055552 | 73 | 0.0 | 1.0 | 0.00 | 0.00 | 0.00 | 11 | 1010.6 | |
| 20260903054541 | 73 | 0.0 | 0.0 | 0.00 | 0.00 | 0.00 | 11 | 1010.5 | |
| 20260903053530 | 71 | 0.0 | 0.0 | 0.00 | 0.00 | 0.00 | 11 | 1010.5 | |
| 20260903052519 | 71 | 0.0 | 1.0 | 0.00 | 0.00 | 0.00 | 11 | 1010.4 | |
| 20260903051507 | 71 | 0.0 | 0.0 | 0.00 | 0.00 | 0.00 | 11 | 1010.3 | |
| 20260903050457 | 71 | 0.0 | 0.0 | 0.00 | 0.00 | 0.00 | 11 | 1010.4 | |
| 20260903045445 | 71 | 0.0 | 0.0 | 0.00 | 0.00 | 0.00 | 11 | 1010.3 | |
| 20260903043119 | 71 | 0.0 | 1.0 | 0.00 | 0.00 | 0.00 | 11 | 1010.2 | |
| 20260903042107 | 71 | 0.0 | 1.0 | 0.00 | 0.00 | 0.00 | 11 | 1010.3 | |
| 20260903041056 | 73 | 0.0 | 2.0 | 0.00 | 0.00 | 0.00 | 11 | 1010.3 | |
| 20260903040045 | 73 | 0.0 | 1.0 | 0.00 | 0.00 | 0.00 | 11 | 1010.3 | |
| 20260903035033 | 73 | 0.0 | 2.0 | 0.00 | 0.00 | 0.00 | 11 | 1010.4 | |
| 20260903034022 | 73 | 1.0 | 2.0 | 0.00 | 0.00 | 0.00 | 11 | 1010.3 | |
| 20260903033010 | 73 | 1.0 | 3.0 | 0.00 | 0.00 | 0.00 | 11 | 1010.3 | |
| 20260903031958 | 73 | 1.0 | 1.0 | 0.00 | 0.00 | 0.00 | 11 | 1010.3 | |
| 20260903030947 | 73 | 0.0 | 1.0 | 0.00 | 0.00 | 0.00 | 11 | 1010.2 | |
| 20260903025935 | 73 | 1.0 | 3.0 | 0.00 | 0.00 | 0.00 | 11 | 1010.2 | |
| 20260903024923 | 73 | 1.0 | 3.0 | 0.00 | 0.00 | 0.00 | 11 | 1010.1 | |
| 20260903023912 | 73 | 0.0 | 2.0 | 0.00 | 0.00 | 0.00 | 11 | 1010.2 | |
| 20260903022900 | 73 | 0.0 | 1.0 | 0.00 | 0.00 | 0.00 | 11 | 1010.2 | |
| 20260903021849 | 73 | 0.0 | 0.0 | 0.00 | 0.00 | 0.00 | 11 | 1010.2 | |
| 20260903020837 | 73 | 0.0 | 0.0 | 0.00 | 0.00 | 0.00 | 11 | 1010.2 | |
| 20260903015826 | 73 | 0.0 | 0.0 | 0.00 | 0.00 | 0.00 | 11 | 1010.3 | |
| 20260903014411 | 73 | 0.0 | 0.0 | 0.00 | 0.00 | 0.00 | 11 | 1010.3 | |
| 20260903013359 | 73 | 0.0 | 1.0 | 0.00 | 0.00 | 0.00 | 11 | 1010.4 | |
| 20260903012346 | 71 | 0.0 | 0.0 | 0.00 | 0.00 | 0.00 | 11 | 1010.4 | |
| 20260903011335 | 71 | 0.0 | 1.0 | 0.00 | 0.00 | 0.00 | 11 | 1010.3 | |
| 20260903010323 | 73 | 0.0 | 1.0 | 0.00 | 0.00 | 0.00 | 11 | 1010.3 | |
| 20260903005312 | 73 | 0.0 | 0.0 | 0.00 | 0.00 | 0.00 | 11 | 1010.4 | |
| 20260903003857 | 73 | 0.0 | 0.0 | 0.00 | 0.00 | 0.00 | 11 | 1010.4 | |
| 20260902231126 | 71 | 0.0 | 0.0 | 0.00 | 0.00 | 0.00 | 11 | 1010.4 | |
| 20260902215055 | 73 | 0.0 | 0.0 | 0.00 | 0.00 | 0.00 | 11 | 1010.5 | |
| 20260902214044 | 73 | 0.0 | 0.0 | 0.00 | 0.00 | 0.00 | 11 | 1010.5 | |
| 20260902213033 | 73 | 0.0 | 0.0 | 0.00 | 0.00 | 0.00 | 11 | 1010.4 | |
| 20260902211819 | 73 | 0.0 | 0.0 | 0.00 | 0.00 | 0.00 | 11 | 1010.3 | |
| 20260902210706 | 75 | 0.0 | 0.0 | 0.00 | 0.00 | 0.00 | 11 | 1010.3 | |
| 20260902205351 | 75 | 0.0 | 0.0 | 0.00 | 0.00 | 0.00 | 11 | 1010.3 | |
| 20260902203935 | 75 | 0.0 | 0.0 | 0.00 | 0.00 | 0.00 | 11 | 1010.2 | |
| 20260902202924 | 75 | 0.0 | 0.0 | 0.00 | 0.00 | 0.00 | 11 | 1010.2 | |
| 20260902201911 | 75 | 0.0 | 1.0 | 0.00 | 0.00 | 0.00 | 11 | 1010.2 | |
| 20260902200900 | 75 | 0.0 | 0.0 | 0.00 | 0.00 | 0.00 | 11 | 1010.2 | |
| 20260902195747 | 75 | 0.0 | 0.0 | 0.00 | 0.00 | 0.00 | 11 | 1010.1 | |
| 20260902194230 | 77 | 0.0 | 0.0 | 0.00 | 0.00 | 0.00 | 11 | 1010.2 | |
| 20260902193218 | 77 | 0.0 | 0.0 | 0.00 | 0.00 | 0.00 | 11 | 1010.1 | |
| 20260902192207 | 77 | 0.0 | 1.0 | 0.00 | 0.00 | 0.00 | 11 | 1010.0 | |
| 20260902191156 | 77 | 0.0 | 3.0 | 0.00 | 0.00 | 0.00 | 11 | 1009.8 | |
| 20260902190145 | 78 | 2.0 | 3.0 | 0.00 | 0.00 | 0.00 | 11 | 1010.0 | |
| 20260902185133 | 78 | 1.0 | 3.0 | 0.00 | 0.00 | 0.00 | 11 | 1009.7 | |
| 20260902184122 | 78 | 1.0 | 5.0 | 0.00 | 0.00 | 0.00 | 11 | 1009.7 | |
| 20260902183111 | 78 | 2.0 | 4.0 | 0.00 | 0.00 | 0.00 | 11 | 1009.6 | |
| 20260902182057 | 78 | 2.0 | 6.0 | 0.00 | 0.00 | 0.00 | 11 | 1009.5 | |
| 20260902181046 | 78 | 3.0 | 5.0 | 0.00 | 0.00 | 0.00 | 11 | 1009.6 | |
| 20260902180035 | 78 | 2.0 | 6.0 | 0.00 | 0.00 | 0.00 | 11 | 1009.5 | |
| 20260902175023 | 78 | 2.0 | 4.0 | 0.00 | 0.00 | 0.00 | 11 | 1009.6 | |
| 20260902174013 | 78 | 2.0 | 4.0 | 0.00 | 0.00 | 0.00 | 11 | 1009.5 | |
| 20260902172958 | 78 | 2.0 | 6.0 | 0.00 | 0.00 | 0.00 | 11 | 1009.6 | |
| 20260902171943 | 78 | 2.0 | 6.0 | 0.00 | 0.00 | 0.00 | 11 | 1009.6 | |
| 20260902170931 | 78 | 3.0 | 4.0 | 0.00 | 0.00 | 0.00 | 11 | 1009.6 | |
| 20260902165919 | 78 | 3.0 | 4.0 | 0.00 | 0.00 | 0.00 | 11 | 1009.7 |